VR2HK-13 Weather Reports


Display with metric or nautical units.
time (UTC)temp
F
wind
direction
speed
MPH
gust
MPH
rain 1hr
in
rain 24hr
in
rain mn
in
humidity
%
barometer
mb
20260906231427 82 230 6.0 9.0 0.00 0.00 0.00 81 1008.8
20260906231046 82 209 5.0 8.0 0.00 0.00 0.00 81 1008.7
20260906230917 82 239 5.0 8.0 0.00 0.00 0.00 81 1008.7
20260906230546 82 229 3.0 6.0 0.00 0.00 0.00 81 1008.7
20260906230408 82 239 4.0 6.0 0.00 0.00 0.00 81 1008.7
20260906230046 82 261 4.0 7.0 0.00 0.00 0.00 81 1008.7
20260906225857 82 244 4.0 8.0 0.00 0.00 0.00 81 1008.7
20260906225546 82 228 4.0 9.0 0.00 0.00 0.00 81 1008.6
20260906225347 82 225 4.0 9.0 0.00 0.00 0.00 81 1008.6
20260906225046 82 207 4.0 8.0 0.00 0.00 0.00 81 1008.6
20260906224837 82 227 5.0 8.0 0.00 0.00 0.00 81 1008.6
20260906224546 82 195 5.0 6.0 0.00 0.00 0.00 81 1008.6
20260906224327 82 245 2.0 5.0 0.00 0.00 0.00 81 1008.5
20260906224046 82 250 3.0 7.0 0.00 0.00 0.00 81 1008.5
20260906223817 82 248 2.0 7.0 0.00 0.00 0.00 81 1008.5
20260906223546 82 252 4.0 7.0 0.00 0.00 0.00 81 1008.5
20260906223308 81 290 5.0 8.0 0.00 0.00 0.00 81 1008.5
20260906223045 81 174 5.0 8.0 0.00 0.00 0.00 81 1008.5
20260906222757 81 253 2.0 7.0 0.00 0.00 0.00 81 1008.5
20260906222546 81 212 3.0 7.0 0.00 0.00 0.00 82 1008.4
20260906222247 81 262 3.0 7.0 0.00 0.00 0.00 81 1008.4
20260906222046 81 271 4.0 8.0 0.00 0.00 0.00 81 1008.3
20260906221737 81 250 5.0 8.0 0.00 0.00 0.00 81 1008.3
20260906221546 81 246 4.0 7.0 0.00 0.00 0.00 81 1008.3
20260906221228 81 248 4.0 8.0 0.00 0.00 0.00 81 1008.3
20260906221046 81 229 3.0 9.0 0.00 0.00 0.00 81 1008.3
20260906220716 81 248 6.0 9.0 0.00 0.00 0.00 81 1008.3
20260906220545 81 241 4.0 9.0 0.00 0.00 0.00 81 1008.3
20260906220207 81 222 7.0 9.0 0.00 0.00 0.00 81 1008.3
20260906220045 81 233 7.0 9.0 0.00 0.00 0.00 81 1008.3
20260906215657 81 192 3.0 6.0 0.00 0.00 0.00 81 1008.2
20260906215546 81 195 4.0 6.0 0.00 0.00 0.00 81 1008.3
20260906215146 81 253 3.0 9.0 0.00 0.00 0.00 81 1008.2
20260906215045 81 218 5.0 9.0 0.00 0.00 0.00 81 1008.2
20260906214637 81 274 3.0 5.0 0.00 0.00 0.00 81 1008.3
20260906214545 81 230 3.0 7.0 0.00 0.00 0.00 81 1008.3
20260906214046 81 196 1.0 5.0 0.00 0.00 0.00 81 1008.3
20260906213616 81 243 3.0 6.0 0.00 0.00 0.00 81 1008.3
20260906213545 81 227 3.0 6.0 0.00 0.00 0.00 81 1008.3
20260906213107 81 185 2.0 10.0 0.00 0.00 0.00 81 1008.2
20260906213046 81 204 2.0 10.0 0.00 0.00 0.00 81 1008.2
20260906212556 81 265 6.0 8.0 0.00 0.00 0.00 82 1008.1
20260906212545 81 232 6.0 8.0 0.00 0.00 0.00 82 1008.1
20260906212047 81 244 5.0 8.0 0.00 0.00 0.00 82 1008.1
20260906212045 81 209 5.0 8.0 0.00 0.00 0.00 82 1008.1
20260906211545 81 205 6.0 9.0 0.00 0.00 0.00 82 1008.1
20260906211537 81 224 6.0 9.0 0.00 0.00 0.00 82 1008.1
20260906211045 82 238 6.0 10.0 0.00 0.00 0.00 82 1008.1
20260906211026 82 249 5.0 9.0 0.00 0.00 0.00 82 1008.0
20260906210545 82 255 1.0 4.0 0.00 0.00 0.00 82 1008.1
20260906210516 82 280 1.0 4.0 0.00 0.00 0.00 82 1008.1
20260906210045 82 224 2.0 3.0 0.00 0.00 0.00 82 1008.0
20260906210007 82 233 1.0 3.0 0.00 0.00 0.00 82 1008.0
20260906205545 82 245 1.0 5.0 0.00 0.00 0.00 82 1008.0
20260906205456 82 246 1.0 6.0 0.00 0.00 0.00 82 1008.0
20260906205045 81 140 3.0 7.0 0.00 0.00 0.00 82 1007.9
20260906204947 81 177 3.0 7.0 0.00 0.00 0.00 82 1008.0
20260906204545 81 196 1.0 2.0 0.00 0.00 0.00 82 1008.0
20260906204436 81 53 0.0 1.0 0.00 0.00 0.00 82 1008.0
20260906204045 81 146 1.0 1.0 0.00 0.00 0.00 82 1007.9
20260906203926 81 317 0.0 1.0 0.00 0.00 0.00 82 1007.9
20260906203545 81 242 0.0 2.0 0.00 0.00 0.00 82 1007.9
20260906203416 81 252 0.0 2.0 0.00 0.00 0.00 83 1007.9
20260906203044 81 134 0.0 1.0 0.00 0.00 0.00 83 1007.8
20260906202906 81 260 0.0 1.0 0.00 0.00 0.00 83 1007.8
20260906202545 81 38 0.0 2.0 0.00 0.00 0.00 83 1007.8
20260906202356 81 234 1.0 3.0 0.00 0.00 0.00 83 1007.8
20260906202045 81 233 2.0 3.0 0.00 0.00 0.00 83 1007.8
20260906201846 81 143 0.0 3.0 0.00 0.00 0.00 82 1007.8
20260906201545 81 186 1.0 2.0 0.00 0.00 0.00 82 1007.8
20260906201336 81 156 0.0 2.0 0.00 0.00 0.00 82 1007.8
20260906201045 81 275 0.0 2.0 0.00 0.00 0.00 82 1007.8
20260906200826 81 290 0.0 1.0 0.00 0.00 0.00 82 1007.8
20260906200316 81 312 0.0 1.0 0.00 0.00 0.00 82 1007.7
20260906200045 81 225 0.0 1.0 0.00 0.00 0.00 82 1007.7
20260906195806 81 283 0.0 1.0 0.00 0.00 0.00 82 1007.7
20260906195544 81 266 1.0 1.0 0.00 0.00 0.00 82 1007.7
20260906195256 81 279 0.0 1.0 0.00 0.00 0.00 82 1007.7
20260906195044 81 313 0.0 1.0 0.00 0.00 0.00 82 1007.7
20260906194746 81 105 0.0 1.0 0.00 0.00 0.00 82 1007.7
20260906194545 81 281 0.0 3.0 0.00 0.00 0.00 82 1007.7
20260906194236 81 229 2.0 3.0 0.00 0.00 0.00 82 1007.6
20260906194044 81 249 2.0 3.0 0.00 0.00 0.00 82 1007.7
20260906193725 81 250 1.0 4.0 0.00 0.00 0.00 82 1007.6
20260906193544 81 185 2.0 4.0 0.00 0.00 0.00 82 1007.6
20260906193216 81 285 0.0 2.0 0.00 0.00 0.00 82 1007.7
20260906193045 81 220 1.0 2.0 0.00 0.00 0.00 82 1007.7
20260906192705 81 195 0.0 3.0 0.00 0.00 0.00 82 1007.6
20260906192544 81 140 1.0 3.0 0.00 0.00 0.00 82 1007.7
20260906192156 81 152 0.0 2.0 0.00 0.00 0.00 82 1007.6
20260906192044 81 239 0.0 2.0 0.00 0.00 0.00 82 1007.7
20260906191646 81 239 0.0 2.0 0.00 0.00 0.00 82 1007.6
20260906191545 81 258 1.0 2.0 0.00 0.00 0.00 82 1007.6
20260906191135 81 255 0.0 3.0 0.00 0.00 0.00 83 1007.6
20260906191044 81 252 2.0 3.0 0.00 0.00 0.00 83 1007.6
20260906190626 81 302 0.0 1.0 0.00 0.00 0.00 83 1007.6
20260906190544 81 302 0.0 1.0 0.00 0.00 0.00 83 1007.6
20260906190116 81 258 0.0 1.0 0.00 0.00 0.00 83 1007.7
20260906190045 81 260 0.0 1.0 0.00 0.00 0.00 83 1007.7
20260906185544 81 265 0.0 1.0 0.00 0.00 0.00 83 1007.7
20260906185055 81 151 0.0 1.0 0.00 0.00 0.00 83 1007.8
20260906185044 81 149 0.0 1.0 0.00 0.00 0.00 83 1007.8
20260906184547 81 186 1.0 3.0 0.00 0.00 0.00 83 1007.7
20260906184544 81 179 1.0 3.0 0.00 0.00 0.00 83 1007.7
20260906184044 81 157 4.0 6.0 0.00 0.00 0.00 83 1007.8
20260906184035 81 142 4.0 6.0 0.00 0.00 0.00 83 1007.8
20260906183544 81 219 1.0 3.0 0.00 0.00 0.00 83 1007.8
20260906183044 81 237 1.0 3.0 0.00 0.00 0.00 83 1007.8
20260906183016 81 219 1.0 3.0 0.00 0.00 0.00 83 1007.8
20260906182544 81 281 1.0 3.0 0.00 0.00 0.00 83 1007.8
20260906182505 81 233 1.0 3.0 0.00 0.00 0.00 83 1007.8
20260906182044 81 233 1.0 4.0 0.00 0.00 0.00 83 1007.9
20260906181955 81 198 1.0 4.0 0.00 0.00 0.00 84 1007.9
20260906181544 81 276 1.0 6.0 0.00 0.00 0.00 84 1008.0
20260906181445 81 282 4.0 6.0 0.00 0.00 0.00 84 1008.0
20260906181044 81 226 1.0 3.0 0.00 0.00 0.00 84 1008.1
20260906180935 81 276 1.0 3.0 0.00 0.00 0.00 84 1008.1
20260906180544 81 239 1.0 3.0 0.00 0.00 0.00 84 1008.1
20260906180425 81 237 1.0 3.0 0.00 0.00 0.00 84 1008.2
20260906180043 81 257 2.0 4.0 0.00 0.00 0.00 84 1008.2
20260906175915 81 247 1.0 4.0 0.00 0.00 0.00 83 1008.2
20260906175543 81 245 2.0 3.0 0.00 0.00 0.00 83 1008.2
20260906175405 81 241 2.0 3.0 0.00 0.00 0.00 83 1008.2
20260906175044 81 259 1.0 3.0 0.00 0.00 0.00 83 1008.2
20260906174855 81 219 2.0 3.0 0.00 0.00 0.00 83 1008.1
20260906174543 81 215 1.0 3.0 0.00 0.00 0.00 83 1008.1
20260906174345 81 251 2.0 4.0 0.00 0.00 0.00 82 1008.2
20260906174044 82 249 2.0 6.0 0.00 0.00 0.00 82 1008.2
20260906173835 82 240 3.0 6.0 0.00 0.00 0.00 82 1008.2
20260906173544 82 220 4.0 5.0 0.00 0.00 0.00 81 1008.1
20260906173324 81 239 1.0 4.0 0.00 0.00 0.00 81 1008.1
20260906173043 82 218 1.0 4.0 0.00 0.00 0.00 82 1008.2
20260906172816 82 207 1.0 2.0 0.00 0.00 0.00 82 1008.2
20260906172544 82 221 0.0 2.0 0.00 0.00 0.00 82 1008.2
20260906172306 82 230 1.0 3.0 0.00 0.00 0.00 82 1008.2
20260906172043 82 208 1.0 3.0 0.00 0.00 0.00 82 1008.3
20260906171754 82 37 0.0 1.0 0.00 0.00 0.00 82 1008.3
20260906171543 82 263 0.0 1.0 0.00 0.00 0.00 82 1008.3
20260906171245 82 238 0.0 2.0 0.00 0.00 0.00 82 1008.3
20260906171043 82 240 1.0 2.0 0.00 0.00 0.00 82 1008.3
20260906170735 82 225 0.0 1.0 0.00 0.00 0.00 82 1008.3
20260906170224 82 223 0.0 3.0 0.00 0.00 0.00 82 1008.3
20260906170043 82 199 1.0 3.0 0.00 0.00 0.00 82 1008.3
20260906165715 82 227 1.0 3.0 0.00 0.00 0.00 82 1008.3
20260906165543 82 188 2.0 3.0 0.00 0.00 0.00 82 1008.3
20260906165204 82 297 0.0 1.0 0.00 0.00 0.00 82 1008.3
20260906165043 82 330 0.0 1.0 0.00 0.00 0.00 82 1008.3
20260906164654 82 248 0.0 2.0 0.00 0.00 0.00 83 1008.3
20260906164543 82 261 0.0 2.0 0.00 0.00 0.00 83 1008.3
20260906164145 82 184 1.0 3.0 0.00 0.00 0.00 83 1008.4
20260906164043 82 196 1.0 3.0 0.00 0.00 0.00 83 1008.4
20260906163634 82 214 1.0 3.0 0.00 0.00 0.00 83 1008.4
20260906163543 82 230 2.0 3.0 0.00 0.00 0.00 83 1008.4
20260906163124 82 261 0.0 2.0 0.00 0.00 0.00 83 1008.6
20260906163043 82 303 0.0 2.0 0.00 0.00 0.00 83 1008.5
20260906162614 82 300 0.0 1.0 0.00 0.00 0.00 82 1008.6
20260906162542 82 291 0.0 1.0 0.00 0.00 0.00 82 1008.6
20260906162104 82 256 0.0 3.0 0.00 0.00 0.00 82 1008.6
20260906162043 82 299 0.0 3.0 0.00 0.00 0.00 82 1008.6
20260906161554 82 172 2.0 6.0 0.00 0.00 0.00 82 1008.6
20260906161543 82 180 2.0 6.0 0.00 0.00 0.00 82 1008.5
20260906161045 82 149 3.0 5.0 0.00 0.00 0.00 82 1008.6
20260906161042 82 171 3.0 5.0 0.00 0.00 0.00 82 1008.6
20260906160543 82 171 3.0 5.0 0.00 0.00 0.00 82 1008.5
20260906160534 82 150 3.0 5.0 0.00 0.00 0.00 82 1008.5
20260906160043 82 191 2.0 3.0 0.00 0.00 0.00 82 1008.6
20260906160024 82 164 1.0 3.0 0.00 0.00 0.00 82 1008.6
20260906155542 82 228 1.0 4.0 0.00 0.00 0.00 81 1008.6
20260906155514 82 249 1.0 4.0 0.00 0.00 0.00 82 1008.6
20260906155043 82 192 2.0 6.0 0.00 0.00 0.00 81 1008.8
20260906155004 82 240 2.0 7.0 0.00 0.00 0.00 81 1008.7
20260906154542 82 203 5.0 7.0 0.00 0.00 0.00 81 1008.7
20260906154453 82 221 5.0 5.0 0.00 0.00 0.00 81 1008.7
20260906154042 82 229 1.0 3.0 0.00 0.00 0.00 81 1008.8
20260906153944 82 269 1.0 3.0 0.00 0.00 0.00 81 1008.8
20260906153543 82 276 0.0 2.0 0.00 0.00 0.00 81 1008.8
20260906153434 82 304 0.0 2.0 0.00 0.00 0.00 81 1008.8
20260906153042 82 297 1.0 2.0 0.00 0.00 0.00 81 1008.9
20260906152923 82 286 0.0 3.0 0.00 0.00 0.00 81 1008.9
20260906152542 82 302 1.0 4.0 0.00 0.00 0.00 81 1009.0
20260906152414 82 229 1.0 4.0 0.00 0.00 0.00 81 1008.9
20260906152043 82 255 2.0 4.0 0.00 0.00 0.00 81 1008.9
20260906151904 82 201 2.0 3.0 0.00 0.00 0.00 81 1008.9
20260906151353 82 238 1.0 2.0 0.00 0.00 0.00 81 1008.8
20260906151042 82 216 1.0 2.0 0.00 0.00 0.00 81 1008.9
20260906150844 82 280 1.0 3.0 0.00 0.00 0.00 81 1008.9
20260906150542 82 268 1.0 4.0 0.00 0.00 0.00 81 1009.0
20260906150334 82 246 1.0 6.0 0.00 0.00 0.00 81 1009.0
20260906150042 82 217 1.0 7.0 0.00 0.00 0.00 81 1009.0
20260906145823 82 279 2.0 7.0 0.00 0.00 0.00 81 1009.1
20260906145542 82 204 2.0 5.0 0.00 0.00 0.00 81 1009.1
20260906145314 82 211 2.0 6.0 0.00 0.00 0.00 81 1009.0
20260906145042 82 239 3.0 6.0 0.00 0.00 0.00 81 1009.0
20260906144804 82 183 3.0 7.0 0.00 0.00 0.00 80 1009.0
20260906144542 82 189 3.0 7.0 0.00 0.00 0.00 80 1009.0
20260906144253 83 197 3.0 7.0 0.00 0.00 0.00 80 1009.1
20260906144042 82 228 2.0 6.0 0.00 0.00 0.00 80 1009.2
20260906143743 83 220 0.0 4.0 0.00 0.00 0.00 80 1009.2
20260906143542 82 190 3.0 5.0 0.00 0.00 0.00 80 1009.2
20260906143234 82 167 3.0 5.0 0.00 0.00 0.00 80 1009.3
20260906143043 82 215 1.0 2.0 0.00 0.00 0.00 80 1009.2
20260906142542 82 287 0.0 2.0 0.00 0.00 0.00 79 1009.2
20260906142213 82 300 1.0 3.0 0.00 0.00 0.00 79 1009.3
20260906142042 82 282 1.0 3.0 0.00 0.00 0.00 79 1009.2
20260906141703 82 284 1.0 2.0 0.00 0.00 0.00 79 1009.2
20260906141542 82 275 1.0 2.0 0.00 0.00 0.00 79 1009.1
20260906141154 82 271 1.0 3.0 0.00 0.00 0.00 79 1009.2
20260906141041 82 252 1.0 3.0 0.00 0.00 0.00 79 1009.2
20260906140643 82 319 1.0 2.0 0.00 0.00 0.00 79 1009.1
20260906140541 82 342 0.0 2.0 0.00 0.00 0.00 79 1009.1
20260906140133 82 236 1.0 2.0 0.00 0.00 0.00 79 1009.1
20260906140042 82 252 0.0 2.0 0.00 0.00 0.00 79 1009.1
20260906135623 82 201 1.0 4.0 0.00 0.00 0.00 79 1009.0
20260906135542 82 233 2.0 4.0 0.00 0.00 0.00 79 1009.0
20260906135113 83 241 1.0 3.0 0.00 0.00 0.00 79 1008.9
20260906135042 83 222 1.0 3.0 0.00 0.00 0.00 79 1008.9
20260906134603 82 185 2.0 3.0 0.00 0.00 0.00 79 1008.8
20260906134541 82 168 2.0 3.0 0.00 0.00 0.00 79 1008.9
20260906134053 82 184 1.0 4.0 0.00 0.00 0.00 79 1008.8
20260906134042 82 70 1.0 4.0 0.00 0.00 0.00 79 1008.8
20260906133544 82 244 0.0 1.0 0.00 0.00 0.00 79 1008.8
20260906133542 82 254 0.0 1.0 0.00 0.00 0.00 79 1008.8
20260906133041 82 324 0.0 1.0 0.00 0.00 0.00 79 1008.8
20260906133033 82 317 0.0 1.0 0.00 0.00 0.00 79 1008.8
20260906132541 82 330 0.0 2.0 0.00 0.00 0.00 79 1008.9
20260906132523 82 310 1.0 2.0 0.00 0.00 0.00 79 1008.9
20260906132042 82 260 1.0 4.0 0.00 0.00 0.00 79 1008.9
20260906132012 82 266 1.0 5.0 0.00 0.00 0.00 79 1008.8
20260906131541 82 282 3.0 5.0 0.00 0.00 0.00 79 1008.9
20260906131503 82 259 1.0 4.0 0.00 0.00 0.00 79 1008.9
20260906131041 82 258 2.0 4.0 0.00 0.00 0.00 79 1008.9
20260906130953 82 316 0.0 2.0 0.00 0.00 0.00 79 1008.9
20260906130542 82 339 0.0 5.0 0.00 0.00 0.00 79 1008.9
20260906130443 82 223 2.0 5.0 0.00 0.00 0.00 79 1008.9
20260906130041 83 305 1.0 2.0 0.00 0.00 0.00 79 1008.8
20260906125932 83 341 1.0 2.0 0.00 0.00 0.00 79 1008.7
20260906125541 83 323 0.0 3.0 0.00 0.00 0.00 79 1008.7
20260906125423 83 240 1.0 3.0 0.00 0.00 0.00 79 1008.7
20260906125041 83 271 1.0 4.0 0.00 0.00 0.00 79 1008.7
20260906124913 83 304 2.0 4.0 0.00 0.00 0.00 79 1008.8
20260906124542 83 289 2.0 3.0 0.00 0.00 0.00 79 1008.8
20260906124402 83 268 2.0 3.0 0.00 0.00 0.00 79 1008.7
20260906124041 83 292 2.0 4.0 0.00 0.00 0.00 79 1008.6
20260906123541 83 286 1.0 3.0 0.00 0.00 0.00 79 1008.5
20260906123342 83 311 1.0 2.0 0.00 0.00 0.00 79 1008.6
20260906123041 83 294 0.0 2.0 0.00 0.00 0.00 78 1008.5
20260906122833 83 275 0.0 2.0 0.00 0.00 0.00 78 1008.5
20260906122541 83 324 1.0 1.0 0.00 0.00 0.00 78 1008.5
20260906122041 83 329 0.0 3.0 0.00 0.00 0.00 78 1008.4
20260906121812 83 321 0.0 4.0 0.00 0.00 0.00 78 1008.4
20260906121541 83 292 2.0 4.0 0.00 0.00 0.00 78 1008.3
20260906121303 83 348 1.0 4.0 0.00 0.00 0.00 78 1008.4
20260906121041 83 303 1.0 5.0 0.00 0.00 0.00 78 1008.3
20260906120752 83 261 1.0 5.0 0.00 0.00 0.00 78 1008.4
20260906120541 83 265 2.0 5.0 0.00 0.00 0.00 78 1008.3
20260906120242 83 286 1.0 4.0 0.00 0.00 0.00 77 1008.3
20260906120041 83 174 1.0 4.0 0.00 0.00 0.00 77 1008.3
20260906115732 83 314 0.0 4.0 0.00 0.00 0.00 77 1008.2
20260906115540 83 249 1.0 4.0 0.00 0.00 0.00 77 1008.1
20260906115222 83 313 1.0 3.0 0.00 0.00 0.00 77 1008.1
20260906115041 83 269 2.0 3.0 0.00 0.00 0.00 77 1008.1
20260906114712 83 287 2.0 3.0 0.00 0.00 0.00 77 1008.0
20260906114541 83 299 1.0 3.0 0.00 0.00 0.00 77 1008.0
20260906114201 83 241 1.0 4.0 0.00 0.00 0.00 77 1008.0
20260906114040 83 314 3.0 4.0 0.00 0.00 0.00 77 1008.0
20260906113652 83 344 1.0 2.0 0.00 0.00 0.00 77 1007.9
20260906113541 83 330 1.0 2.0 0.00 0.00 0.00 77 1007.9
20260906113142 83 292 1.0 4.0 0.00 0.00 0.00 77 1007.9
20260906113041 83 339 1.0 4.0 0.00 0.00 0.00 77 1007.9
20260906112632 83 360 1.0 5.0 0.00 0.00 0.00 77 1007.9
20260906112540 83 6 1.0 5.0 0.00 0.00 0.00 77 1007.9
20260906112122 83 329 1.0 4.0 0.00 0.00 0.00 77 1007.9
20260906112042 83 323 0.0 4.0 0.00 0.00 0.00 77 1007.9
20260906111540 83 348 1.0 2.0 0.00 0.00 0.00 77 1007.8
20260906111102 83 254 1.0 4.0 0.00 0.00 0.00 77 1007.8
20260906110552 83 38 1.0 5.0 0.00 0.00 0.00 77 1007.8
20260906110541 83 249 1.0 5.0 0.00 0.00 0.00 77 1007.7
20260906110042 83 351 2.0 5.0 0.00 0.00 0.00 77 1007.7
20260906110040 83 325 2.0 5.0 0.00 0.00 0.00 77 1007.7
20260906105540 84 309 1.0 4.0 0.00 0.00 0.00 76 1007.7
20260906105532 84 310 1.0 4.0 0.00 0.00 0.00 76 1007.7
20260906105040 84 64 3.0 5.0 0.00 0.00 0.00 76 1007.7
20260906105022 84 343 2.0 5.0 0.00 0.00 0.00 76 1007.7
20260906104540 84 359 2.0 9.0 0.00 0.00 0.00 76 1007.7
20260906104511 84 8 1.0 9.0 0.00 0.00 0.00 76 1007.7
20260906104040 84 3 2.0 8.0 0.00 0.00 0.00 75 1007.6
20260906104001 84 64 3.0 8.0 0.00 0.00 0.00 75 1007.6
20260906103540 84 49 2.0 8.0 0.00 0.00 0.00 75 1007.6
20260906103452 84 3 1.0 8.0 0.00 0.00 0.00 74 1007.6
20260906103041 84 281 2.0 6.0 0.00 0.00 0.00 74 1007.6
20260906102942 84 298 2.0 6.0 0.00 0.00 0.00 74 1007.5
20260906102540 84 284 2.0 4.0 0.00 0.00 0.00 74 1007.5
20260906102431 84 318 1.0 4.0 0.00 0.00 0.00 74 1007.5
20260906102040 84 324 2.0 4.0 0.00 0.00 0.00 74 1007.4
20260906101922 84 280 3.0 4.0 0.00 0.00 0.00 74 1007.5
20260906101539 84 333 1.0 7.0 0.00 0.00 0.00 74 1007.4
20260906101411 84 331 1.0 7.0 0.00 0.00 0.00 74 1007.4
20260906101040 84 114 2.0 10.0 0.00 0.00 0.00 74 1007.4
20260906100901 84 360 1.0 10.0 0.00 0.00 0.00 74 1007.4
20260906100540 85 24 2.0 6.0 0.00 0.00 0.00 74 1007.4
20260906100351 85 11 3.0 6.0 0.00 0.00 0.00 74 1007.4
20260906100040 85 347 3.0 10.0 0.00 0.00 0.00 74 1007.4
20260906095841 85 5 2.0 10.0 0.00 0.00 0.00 74 1007.3
20260906095540 85 297 2.0 8.0 0.00 0.00 0.00 74 1007.3
20260906095331 85 56 3.0 8.0 0.00 0.00 0.00 74 1007.3
20260906095040 85 332 3.0 10.0 0.00 0.00 0.00 73 1007.2
20260906094821 85 313 5.0 10.0 0.00 0.00 0.00 73 1007.3
20260906094540 85 2 3.0 9.0 0.00 0.00 0.00 73 1007.2
20260906094311 86 15 4.0 8.0 0.00 0.00 0.00 73 1007.2
20260906094039 86 352 4.0 7.0 0.00 0.00 0.00 73 1007.2
20260906093801 86 338 0.0 4.0 0.00 0.00 0.00 73 1007.2
20260906093540 86 262 2.0 5.0 0.00 0.00 0.00 73 1007.1
20260906093251 86 305 2.0 5.0 0.00 0.00 0.00 73 1007.1
20260906093040 86 244 2.0 4.0 0.00 0.00 0.00 73 1007.1
20260906092539 86 291 2.0 7.0 0.00 0.00 0.00 73 1007.1
20260906092231 86 40 3.0 9.0 0.00 0.00 0.00 73 1007.1
20260906092040 86 328 4.0 9.0 0.00 0.00 0.00 72 1007.1
20260906091540 87 41 4.0 10.0 0.00 0.00 0.00 71 1007.1
20260906091211 88 31 4.0 10.0 0.00 0.00 0.00 71 1007.0
20260906091039 88 342 4.0 8.0 0.00 0.00 0.00 71 1007.1
20260906090701 89 248 1.0 8.0 0.00 0.00 0.00 71 1007.0
20260906090540 89 8 2.0 10.0 0.00 0.00 0.00 71 1007.0
20260906090151 89 9 7.0 13.0 0.00 0.00 0.00 71 1007.0
20260906090040 89 72 5.0 13.0 0.00 0.00 0.00 71 1007.0
20260906085640 90 50 7.0 13.0 0.00 0.00 0.00 69 1007.0
20260906085539 90 12 5.0 13.0 0.00 0.00 0.00 69 1007.0
20260906085131 91 63 4.0 10.0 0.00 0.00 0.00 69 1007.0
20260906085039 91 294 6.0 10.0 0.00 0.00 0.00 69 1007.0
20260906084621 91 325 2.0 5.0 0.00 0.00 0.00 69 1007.0
20260906084539 91 311 1.0 5.0 0.00 0.00 0.00 68 1007.0
20260906084110 92 46 3.0 8.0 0.00 0.00 0.00 68 1006.9
20260906084039 92 18 2.0 8.0 0.00 0.00 0.00 68 1006.9
20260906083601 92 317 3.0 7.0 0.00 0.00 0.00 69 1006.9
20260906083539 91 309 2.0 7.0 0.00 0.00 0.00 68 1006.9
20260906083039 92 316 2.0 3.0 0.00 0.00 0.00 68 1006.9
20260906082541 92 319 1.0 6.0 0.00 0.00 0.00 68 1006.8
20260906082539 92 325 1.0 6.0 0.00 0.00 0.00 68 1006.8
20260906082039 92 244 3.0 7.0 0.00 0.00 0.00 69 1006.8
20260906082031 92 351 3.0 7.0 0.00 0.00 0.00 69 1006.8
20260906081539 90 255 5.0 7.0 0.00 0.00 0.00 70 1006.8
20260906081520 90 275 4.0 7.0 0.00 0.00 0.00 70 1006.8
20260906081039 89 303 5.0 9.0 0.00 0.00 0.00 71 1006.7
20260906081010 89 256 5.0 9.0 0.00 0.00 0.00 72 1006.7
20260906080539 88 243 6.0 10.0 0.00 0.00 0.00 72 1006.7
20260906080501 88 236 5.0 10.0 0.00 0.00 0.00 72 1006.8
20260906080038 87 161 5.0 13.0 0.00 0.00 0.00 72 1006.8
20260906075950 87 181 4.0 13.0 0.00 0.00 0.00 72 1006.8
20260906075539 88 252 5.0 11.0 0.00 0.00 0.00 71 1006.8
20260906075440 88 142 5.0 11.0 0.00 0.00 0.00 71 1006.8
20260906075039 88 179 6.0 13.0 0.00 0.00 0.00 71 1006.8
20260906074931 88 172 7.0 13.0 0.00 0.00 0.00 72 1006.8
20260906074538 88 306 6.0 12.0 0.00 0.00 0.00 72 1006.8
20260906074420 88 224 6.0 12.0 0.00 0.00 0.00 72 1006.8
20260906074039 87 202 7.0 12.0 0.00 0.00 0.00 72 1006.8
20260906073910 87 245 6.0 12.0 0.00 0.00 0.00 72 1006.8
20260906073539 87 175 4.0 11.0 0.00 0.00 0.00 73 1006.9
20260906073400 87 198 6.0 14.0 0.00 0.00 0.00 72 1006.8
20260906073039 88 241 9.0 14.0 0.00 0.00 0.00 72 1006.8
20260906072850 88 207 6.0 12.0 0.00 0.00 0.00 72 1006.8
20260906072538 89 191 5.0 11.0 0.00 0.00 0.00 72 1006.9
20260906072340 88 232 6.0 10.0 0.00 0.00 0.00 72 1006.9
20260906072039 88 316 1.0 11.0 0.00 0.00 0.00 74 1006.8
20260906071830 87 36 6.0 11.0 0.00 0.00 0.00 74 1006.8
20260906071539 87 203 5.0 11.0 0.00 0.00 0.00 74 1006.9
20260906071319 87 178 6.0 12.0 0.00 0.00 0.00 73 1006.9
20260906070810 87 176 5.0 13.0 0.00 0.00 0.00 74 1006.9
20260906070538 86 213 5.0 13.0 0.00 0.00 0.00 75 1007.0
20260906070300 86 235 8.0 13.0 0.00 0.00 0.00 75 1007.0
20260906070039 86 205 6.0 9.0 0.00 0.00 0.00 75 1007.0
20260906065749 86 216 5.0 10.0 0.00 0.00 0.00 75 1007.0
20260906065538 86 168 7.0 10.0 0.00 0.00 0.00 74 1007.1
20260906065240 86 187 7.0 10.0 0.00 0.00 0.00 74 1007.0
20260906065038 87 176 6.0 10.0 0.00 0.00 0.00 74 1007.1
20260906064038 87 143 8.0 13.0 0.00 0.00 0.00 74 1007.3
20260906063709 87 193 7.0 14.0 0.00 0.00 0.00 73 1007.2
20260906063538 87 206 8.0 14.0 0.00 0.00 0.00 73 1007.2
20260906063038 87 182 6.0 14.0 0.00 0.00 0.00 73 1007.4
20260906062649 87 181 6.0 13.0 0.00 0.00 0.00 73 1007.4
20260906062538 87 209 5.0 13.0 0.00 0.00 0.00 73 1007.4
20260906062038 88 166 6.0 12.0 0.00 0.00 0.00 73 1007.5
20260906061629 88 206 7.0 15.0 0.00 0.00 0.00 72 1007.5
20260906061538 88 214 5.0 15.0 0.00 0.00 0.00 72 1007.6
20260906061038 89 159 5.0 11.0 0.00 0.00 0.00 71 1007.6
20260906060610 89 254 7.0 12.0 0.00 0.00 0.00 72 1007.7
20260906060538 89 234 6.0 12.0 0.00 0.00 0.00 72 1007.7
20260906060038 88 232 4.0 13.0 0.00 0.00 0.00 74 1007.7
20260906055538 86 159 4.0 10.0 0.00 0.00 0.00 75 1007.9
20260906055041 87 235 2.0 6.0 0.00 0.00 0.00 75 1007.9
20260906055038 87 225 2.0 6.0 0.00 0.00 0.00 75 1008.0
20260906054538 86 264 4.0 9.0 0.00 0.00 0.00 75 1008.0
20260906054529 86 202 4.0 9.0 0.00 0.00 0.00 76 1008.0
20260906054038 86 192 6.0 9.0 0.00 0.00 0.00 75 1008.0
20260906054019 86 191 6.0 9.0 0.00 0.00 0.00 75 1008.0
20260906053538 85 215 4.0 12.0 0.00 0.00 0.00 76 1008.0
20260906053509 85 173 5.0 12.0 0.00 0.00 0.00 76 1008.1
20260906053037 85 202 5.0 13.0 0.00 0.00 0.00 77 1008.1
20260906052959 85 171 6.0 13.0 0.00 0.00 0.00 77 1008.1
20260906052538 85 172 7.0 14.0 0.00 0.00 0.00 76 1008.2
20260906052449 85 176 7.0 14.0 0.00 0.00 0.00 76 1008.2
20260906052038 86 325 6.0 11.0 0.00 0.00 0.00 75 1008.2
20260906051939 86 242 5.0 11.0 0.00 0.00 0.00 75 1008.1
20260906051538 86 220 6.0 11.0 0.00 0.00 0.00 74 1008.2
20260906051428 86 178 8.0 11.0 0.00 0.00 0.00 74 1008.2
20260906051037 86 204 7.0 10.0 0.00 0.00 0.00 72 1008.2
20260906050919 87 213 6.0 10.0 0.00 0.00 0.00 72 1008.2
20260906050538 87 189 6.0 10.0 0.00 0.00 0.00 71 1008.3
20260906050409 88 273 6.0 10.0 0.00 0.00 0.00 72 1008.3
20260906050038 88 225 6.0 7.0 0.00 0.00 0.00 71 1008.4
20260906045859 88 258 5.0 8.0 0.00 0.00 0.00 71 1008.4
20260906045537 88 268 5.0 8.0 0.00 0.00 0.00 72 1008.4
20260906045348 88 240 5.0 8.0 0.00 0.00 0.00 72 1008.5
20260906045037 87 229 5.0 8.0 0.00 0.00 0.00 72 1008.5
20260906044839 88 230 5.0 9.0 0.00 0.00 0.00 72 1008.6
20260906044537 87 228 5.0 9.0 0.00 0.00 0.00 72 1008.6
20260906044329 88 220 5.0 8.0 0.00 0.00 0.00 71 1008.7
20260906044038 87 239 5.0 8.0 0.00 0.00 0.00 72 1008.7
20260906043818 88 232 5.0 9.0 0.00 0.00 0.00 72 1008.7
20260906043537 88 236 5.0 9.0 0.00 0.00 0.00 72 1008.7
20260906043309 88 243 6.0 9.0 0.00 0.00 0.00 72 1008.7
20260906043037 87 224 6.0 9.0 0.00 0.00 0.00 73 1008.8
20260906042759 87 235 5.0 8.0 0.00 0.00 0.00 73 1008.8
20260906042537 87 279 6.0 9.0 0.00 0.00 0.00 73 1008.9
20260906042249 87 230 4.0 9.0 0.00 0.00 0.00 73 1008.8
20260906042038 87 161 4.0 8.0 0.00 0.00 0.00 73 1008.8
20260906041739 87 253 5.0 8.0 0.00 0.00 0.00 73 1008.8
20260906041537 87 210 5.0 7.0 0.00 0.00 0.00 72 1008.8
20260906041228 87 276 5.0 9.0 0.00 0.00 0.00 73 1008.9
20260906041037 87 242 6.0 9.0 0.00 0.00 0.00 73 1008.8
20260906040718 87 256 4.0 9.0 0.00 0.00 0.00 73 1008.9
20260906040537 87 232 5.0 8.0 0.00 0.00 0.00 73 1008.9
20260906040209 87 277 4.0 12.0 0.00 0.00 0.00 73 1008.9
20260906040037 87 222 6.0 12.0 0.00 0.00 0.00 72 1008.9
20260906035659 88 273 6.0 12.0 0.00 0.00 0.00 72 1008.9
20260906035537 88 246 7.0 12.0 0.00 0.00 0.00 73 1008.9
20260906035148 87 232 5.0 10.0 0.00 0.00 0.00 74 1008.9
20260906035037 87 237 6.0 10.0 0.00 0.00 0.00 74 1008.9
20260906034638 87 236 5.0 9.0 0.00 0.00 0.00 74 1009.0
20260906034537 87 268 5.0 9.0 0.00 0.00 0.00 74 1009.0
20260906034129 86 311 5.0 9.0 0.00 0.00 0.00 75 1009.1
20260906034037 86 234 5.0 9.0 0.00 0.00 0.00 75 1009.1
20260906033618 85 273 5.0 9.0 0.00 0.00 0.00 77 1009.1
20260906033536 85 250 5.0 9.0 0.00 0.00 0.00 77 1009.1
20260906033108 84 166 5.0 10.0 0.00 0.00 0.00 77 1009.1
20260906033037 84 197 5.0 10.0 0.00 0.00 0.00 77 1009.2
20260906032558 84 269 7.0 11.0 0.00 0.00 0.00 78 1009.2
20260906032537 84 211 7.0 11.0 0.00 0.00 0.00 78 1009.2
20260906032048 83 198 6.0 12.0 0.00 0.00 0.00 79 1009.2
20260906032036 83 256 6.0 12.0 0.00 0.00 0.00 79 1009.2
20260906031539 83 203 8.0 12.0 0.00 0.00 0.00 79 1009.3
20260906031537 83 276 8.0 12.0 0.00 0.00 0.00 79 1009.3
20260906031037 83 231 7.0 14.0 0.00 0.00 0.00 79 1009.3
20260906031028 83 199 7.0 14.0 0.00 0.00 0.00 79 1009.3
20260906030536 83 225 6.0 13.0 0.00 0.00 0.00 80 1009.3
20260906030036 83 227 6.0 13.0 0.00 0.00 0.00 79 1009.4
20260906030008 83 241 6.0 13.0 0.00 0.00 0.00 79 1009.4
20260906025537 83 256 6.0 11.0 0.00 0.00 0.00 80 1009.4
20260906025458 83 244 7.0 10.0 0.00 0.00 0.00 80 1009.4
20260906025037 83 277 7.0 12.0 0.00 0.00 0.00 80 1009.5
20260906024947 83 252 7.0 12.0 0.00 0.00 0.00 80 1009.4
20260906024536 82 200 5.0 11.0 0.00 0.00 0.00 81 1009.4
20260906024438 82 215 6.0 11.0 0.00 0.00 0.00 81 1009.4
20260906024037 82 258 6.0 9.0 0.00 0.00 0.00 81 1009.5
20260906023928 82 225 6.0 9.0 0.00 0.00 0.00 80 1009.5
20260906023537 82 242 6.0 8.0 0.00 0.00 0.00 81 1009.5
20260906023418 82 253 5.0 8.0 0.00 0.00 0.00 81 1009.6
20260906023036 82 226 5.0 9.0 0.00 0.00 0.00 81 1009.6
20260906022907 81 266 4.0 9.0 0.00 0.00 0.00 81 1009.6
20260906022536 81 179 5.0 9.0 0.00 0.00 0.00 82 1009.5
20260906022358 81 243 5.0 9.0 0.00 0.00 0.00 81 1009.5
20260906022036 81 208 3.0 9.0 0.00 0.00 0.00 82 1009.5
20260906021536 81 207 7.0 11.0 0.00 0.00 0.00 81 1009.5
20260906021337 81 216 7.0 10.0 0.00 0.00 0.00 81 1009.5
20260906021036 81 158 7.0 10.0 0.00 0.00 0.00 81 1009.5
20260906020828 81 169 5.0 12.0 0.00 0.00 0.00 82 1009.5
20260906020536 81 137 8.0 12.0 0.00 0.00 0.00 82 1009.5
20260906020318 80 151 7.0 11.0 0.00 0.00 0.00 82 1009.5
20260906020037 81 194 5.0 10.0 0.00 0.00 0.00 83 1009.4
20260906015807 81 196 5.0 12.0 0.00 0.00 0.00 83 1009.4
20260906015536 80 192 9.0 12.0 0.00 0.00 0.00 83 1009.5
20260906015257 80 189 6.0 12.0 0.00 0.00 0.00 83 1009.4
20260906015036 80 223 8.0 13.0 0.00 0.00 0.00 83 1009.4
20260906014748 80 234 7.0 13.0 0.00 0.00 0.00 83 1009.4
20260906014237 80 246 7.0 11.0 0.00 0.00 0.00 84 1009.4
20260906013727 80 244 6.0 15.0 0.00 0.00 0.00 84 1009.4
20260906013536 80 161 8.0 15.0 0.00 0.00 0.00 84 1009.4
20260906013035 80 181 6.0 11.0 0.00 0.00 0.00 85 1009.3
20260906012536 80 246 6.0 13.0 0.00 0.00 0.00 85 1009.3
20260906012157 80 233 9.0 13.0 0.00 0.00 0.00 85 1009.4
20260906012036 80 252 7.0 10.0 0.00 0.00 0.00 85 1009.4
20260906011647 80 241 5.0 11.0 0.00 0.00 0.00 85 1009.4
20260906011535 80 312 7.0 11.0 0.00 0.00 0.00 85 1009.5
20260906011137 80 233 1.0 8.0 0.00 0.00 0.00 85 1009.4
20260906011036 80 45 1.0 8.0 0.00 0.00 0.00 85 1009.5
20260906010627 79 277 2.0 9.0 0.00 0.00 0.00 85 1009.5
20260906010536 79 241 3.0 9.0 0.00 0.00 0.00 85 1009.5
20260906010117 80 142 2.0 4.0 0.00 0.00 0.00 85 1009.5
20260906010036 80 203 1.0 5.0 0.00 0.00 0.00 85 1009.4
20260906005536 79 201 4.0 10.0 0.00 0.00 0.00 85 1009.4
20260906005057 79 226 6.0 10.0 0.00 0.00 0.00 86 1009.3
20260906005035 79 206 6.0 10.0 0.00 0.00 0.00 86 1009.3
20260906004547 79 191 6.0 10.0 0.00 0.00 0.00 86 1009.2
20260906004535 79 212 5.0 10.0 0.00 0.00 0.00 86 1009.2
20260906004038 79 246 4.0 8.0 0.00 0.00 0.00 86 1009.2
20260906004036 79 213 4.0 8.0 0.00 0.00 0.00 86 1009.3
20260906003536 79 246 4.0 7.0 0.00 0.00 0.00 87 1009.1
20260906003527 79 216 4.0 7.0 0.00 0.00 0.00 87 1009.1
20260906003035 79 240 3.0 6.0 0.00 0.00 0.00 87 1009.1
20260906003015 79 268 3.0 6.0 0.00 0.00 0.00 87 1009.1
20260906002535 79 238 3.0 5.0 0.00 0.00 0.00 87 1009.1
20260906002507 79 245 2.0 3.0 0.00 0.00 0.00 87 1009.1
20260906002035 79 244 0.0 2.0 0.00 0.00 0.00 87 1009.1
20260906001957 79 257 1.0 2.0 0.00 0.00 0.00 87 1009.1
20260906001536 79 91 0.0 1.0 0.00 0.00 0.00 88 1009.1
20260906001446 79 328 0.0 1.0 0.00 0.00 0.00 88 1009.1
20260906001035 79 63 0.0 1.0 0.00 0.00 0.00 88 1009.2
20260906000937 79 100 0.0 1.0 0.00 0.00 0.00 88 1009.1
20260906000535 79 10 0.0 1.0 0.00 0.00 0.00 88 1009.1
20260906000427 79 19 0.0 1.0 0.00 0.00 0.00 88 1009.1
20260906000036 79 216 0.0 1.0 0.00 0.00 0.00 88 1009.0
20260905235917 79 10 0.0 2.0 0.00 0.00 0.00 88 1009.0
20260905235535 79 234 1.0 2.0 0.00 0.00 0.00 88 1009.0
20260905235406 79 250 1.0 2.0 0.00 0.00 0.00 88 1009.0
20260905235035 79 227 1.0 3.0 0.00 0.00 0.00 88 1008.9
20260905234857 79 238 1.0 3.0 0.00 0.00 0.00 88 1008.9
20260905234535 79 316 0.0 2.0 0.00 0.00 0.00 88 1008.9
20260905234347 79 289 0.0 2.0 0.00 0.00 0.00 88 1008.9
20260905234035 78 284 1.0 3.0 0.00 0.00 0.00 88 1008.9
20260905233836 78 213 1.0 3.0 0.00 0.00 0.00 88 1008.8
20260905233535 78 218 1.0 2.0 0.00 0.00 0.00 89 1008.8
20260905233327 78 178 0.0 2.0 0.00 0.00 0.00 89 1008.8
20260905233035 78 163 0.0 2.0 0.00 0.00 0.00 89 1008.7
20260905232816 78 149 0.0 1.0 0.00 0.00 0.00 89 1008.7
20260905232535 78 195 0.0 3.0 0.00 0.00 0.00 89 1008.6
20260905232306 78 217 0.0 3.0 0.00 0.00 0.00 89 1008.6
20260905232035 79 201 0.0 2.0 0.00 0.00 0.00 89 1008.6
20260905231535 79 270 1.0 2.0 0.00 0.00 0.00 89 1008.5